TimeCDT,TemperatureF,Dew PointF,Humidity,Sea Level PressureIn,VisibilityMPH,Wind Direction,Wind SpeedMPH,Gust SpeedMPH,PrecipitationIn,Events,Conditions,WindDirDegrees,DateUTC
12:14 AM,69.8,55.4,60,29.82,10.0,SSE,8.1,19.6,N/A,,Scattered Clouds,160,2013-09-28 05:14:00
12:34 AM,69.8,55.4,60,29.82,10.0,SSE,9.2,18.4,N/A,,Clear,150,2013-09-28 05:34:00
12:54 AM,69.8,57.2,64,29.81,10.0,Calm,Calm,-,N/A,,Clear,0,2013-09-28 05:54:00
1:14 AM,69.8,57.2,64,29.81,10.0,SSE,10.4,-,N/A,,Clear,150,2013-09-28 06:14:00
1:34 AM,69.8,57.2,64,29.80,10.0,SSE,8.1,-,N/A,,Clear,150,2013-09-28 06:34:00
1:54 AM,69.8,57.2,64,29.80,10.0,SSE,9.2,-,N/A,,Mostly Cloudy,160,2013-09-28 06:54:00
2:14 AM,69.8,55.4,60,29.80,10.0,SSE,11.5,-,N/A,,Mostly Cloudy,150,2013-09-28 07:14:00
2:34 AM,69.8,55.4,60,29.80,10.0,South,13.8,18.4,N/A,,Scattered Clouds,170,2013-09-28 07:34:00
2:47 AM,68.0,55.4,64,29.79,10.0,SSE,11.5,17.3,N/A,,Clear,160,2013-09-28 07:47:00
3:05 AM,68.0,55.4,64,29.77,10.0,SSE,10.4,18.4,N/A,,Clear,150,2013-09-28 08:05:00
3:25 AM,68.0,55.4,64,29.77,10.0,SSE,11.5,18.4,N/A,,Clear,160,2013-09-28 08:25:00
3:45 AM,68.0,55.4,64,29.76,10.0,Calm,Calm,-,N/A,,Clear,0,2013-09-28 08:45:00
4:05 AM,66.2,55.4,68,29.76,10.0,SSE,10.4,18.4,N/A,,Clear,160,2013-09-28 09:05:00
4:25 AM,66.2,55.4,68,29.75,10.0,SSE,9.2,-,N/A,,Mostly Cloudy,150,2013-09-28 09:25:00
4:45 AM,66.2,55.4,68,29.75,10.0,SSE,12.7,18.4,N/A,,Mostly Cloudy,150,2013-09-28 09:45:00
5:05 AM,66.2,55.4,68,29.74,10.0,SSE,11.5,17.3,N/A,,Mostly Cloudy,160,2013-09-28 10:05:00
5:25 AM,66.2,55.4,68,29.73,10.0,SSE,10.4,17.3,N/A,,Mostly Cloudy,150,2013-09-28 10:25:00
5:45 AM,66.2,55.4,68,29.73,10.0,SSE,11.5,17.3,N/A,,Scattered Clouds,160,2013-09-28 10:45:00
6:05 AM,66.2,55.4,68,29.72,10.0,SSE,11.5,18.4,N/A,,Mostly Cloudy,160,2013-09-28 11:05:00
6:25 AM,66.2,55.4,68,29.71,10.0,SSE,11.5,17.3,N/A,,Scattered Clouds,150,2013-09-28 11:25:00
6:45 AM,66.2,55.4,68,29.71,10.0,SSE,12.7,18.4,N/A,,Scattered Clouds,160,2013-09-28 11:45:00
7:05 AM,66.2,55.4,68,29.70,10.0,SE,10.4,20.7,N/A,,Mostly Cloudy,140,2013-09-28 12:05:00
7:25 AM,66.2,55.4,68,29.69,10.0,SSE,12.7,17.3,N/A,,Mostly Cloudy,150,2013-09-28 12:25:00
7:45 AM,66.2,55.4,68,29.68,10.0,SSE,12.7,19.6,N/A,,Mostly Cloudy,150,2013-09-28 12:45:00
8:05 AM,66.2,55.4,68,29.67,10.0,SSE,11.5,23.0,N/A,,Overcast,150,2013-09-28 13:05:00
8:25 AM,66.2,55.4,68,29.67,10.0,SSE,13.8,19.6,N/A,,Mostly Cloudy,160,2013-09-28 13:25:00
8:45 AM,66.2,55.4,68,29.67,10.0,SSE,12.7,21.9,N/A,,Mostly Cloudy,160,2013-09-28 13:45:00
9:05 AM,66.2,55.4,68,29.65,10.0,SSE,13.8,23.0,N/A,,Overcast,160,2013-09-28 14:05:00
9:25 AM,66.2,55.4,68,29.65,10.0,SSE,15.0,20.7,N/A,,Overcast,160,2013-09-28 14:25:00
9:45 AM,66.2,59.0,78,-9999,10.0,SSE,12.7,19.6,N/A,,Overcast,160,2013-09-28 14:45:00
10:05 AM,64.4,59.0,83,29.64,7.0,SSE,10.4,17.3,N/A,,Overcast,160,2013-09-28 15:05:00
10:25 AM,60.8,57.2,88,29.63,5.0,SSE,9.2,17.3,N/A,,Overcast,160,2013-09-28 15:25:00
10:45 AM,60.8,57.2,88,29.62,7.0,SSE,10.4,16.1,N/A,,Overcast,160,2013-09-28 15:45:00
11:05 AM,60.8,59.0,94,29.62,4.0,SSE,12.7,18.4,N/A,,Overcast,160,2013-09-28 16:05:00
11:25 AM,60.8,59.0,94,29.62,4.0,South,16.1,19.6,N/A,,Overcast,170,2013-09-28 16:25:00
11:45 AM,60.8,59.0,94,29.61,4.0,South,13.8,18.4,N/A,,Overcast,170,2013-09-28 16:45:00
12:05 PM,55.4,51.8,88,29.65,7.0,West,15.0,21.9,N/A,,Overcast,260,2013-09-28 17:05:00
12:25 PM,53.6,50.0,88,29.67,2.0,West,16.1,20.7,N/A,,Overcast,260,2013-09-28 17:25:00
12:45 PM,53.6,50.0,88,29.69,2.0,West,10.4,25.3,N/A,,Overcast,260,2013-09-28 17:45:00
1:05 PM,51.8,50.0,94,29.70,5.0,West,10.4,18.4,N/A,,Overcast,270,2013-09-28 18:05:00
1:25 PM,51.8,50.0,94,29.70,7.0,West,9.2,17.3,N/A,,Overcast,270,2013-09-28 18:25:00
1:45 PM,51.8,48.2,88,29.70,10.0,West,9.2,19.6,N/A,,Overcast,280,2013-09-28 18:45:00
2:05 PM,51.8,48.2,88,29.72,10.0,West,8.1,18.4,N/A,,Overcast,270,2013-09-28 19:05:00
2:25 PM,53.6,50.0,88,29.73,10.0,West,10.4,18.4,N/A,,Overcast,270,2013-09-28 19:25:00
2:45 PM,55.4,50.0,82,29.74,10.0,West,11.5,21.9,N/A,,Scattered Clouds,280,2013-09-28 19:45:00
3:05 PM,55.4,48.2,77,29.75,10.0,West,10.4,16.1,N/A,,Mostly Cloudy,260,2013-09-28 20:05:00
3:25 PM,55.4,50.0,82,29.76,10.0,West,5.8,-,N/A,,Overcast,270,2013-09-28 20:25:00
3:45 PM,55.4,48.2,77,29.77,10.0,West,13.8,17.3,N/A,,Overcast,260,2013-09-28 20:45:00
4:05 PM,53.6,46.4,77,29.78,4.0,West,16.1,21.9,N/A,,Overcast,280,2013-09-28 21:05:00
4:25 PM,53.6,48.2,82,29.79,10.0,West,15.0,20.7,N/A,,Overcast,270,2013-09-28 21:25:00
4:45 PM,53.6,48.2,82,29.79,10.0,WSW,8.1,-,N/A,,Overcast,250,2013-09-28 21:45:00
5:05 PM,53.6,48.2,82,29.81,10.0,WSW,6.9,10.4,N/A,,Overcast,250,2013-09-28 22:05:00
5:25 PM,53.6,48.2,82,29.82,10.0,WSW,6.9,-,N/A,,Overcast,240,2013-09-28 22:25:00
5:45 PM,53.6,48.2,82,29.82,10.0,WSW,5.8,-,N/A,,Overcast,240,2013-09-28 22:45:00
6:05 PM,53.6,48.2,82,29.83,10.0,WSW,8.1,-,N/A,,Overcast,250,2013-09-28 23:05:00
6:25 PM,53.6,44.6,72,29.84,10.0,West,12.7,19.6,N/A,,Overcast,260,2013-09-28 23:25:00
6:45 PM,53.6,44.6,72,29.85,10.0,WSW,6.9,-,N/A,,Overcast,250,2013-09-28 23:45:00
7:05 PM,53.6,46.4,77,29.86,10.0,WSW,5.8,-,N/A,,Mostly Cloudy,250,2013-09-29 00:05:00
7:25 PM,51.8,46.4,82,29.88,10.0,West,5.8,-,N/A,,Scattered Clouds,260,2013-09-29 00:25:00
7:45 PM,51.8,44.6,76,29.88,10.0,West,9.2,-,N/A,,Scattered Clouds,260,2013-09-29 00:45:00
8:05 PM,51.8,44.6,76,29.90,10.0,West,5.8,-,N/A,,Clear,260,2013-09-29 01:05:00
8:25 PM,51.8,44.6,76,29.91,10.0,West,4.6,-,N/A,,Clear,260,2013-09-29 01:25:00
8:45 PM,51.8,46.4,82,29.91,10.0,Calm,Calm,-,N/A,,Clear,0,2013-09-29 01:45:00
9:05 PM,48.2,42.8,82,29.92,10.0,Calm,Calm,-,N/A,,Clear,0,2013-09-29 02:05:00
9:25 PM,48.2,42.8,82,29.92,10.0,Calm,Calm,-,N/A,,Clear,0,2013-09-29 02:25:00
9:45 PM,46.4,42.8,87,29.92,10.0,Calm,Calm,-,N/A,,Clear,0,2013-09-29 02:45:00
10:05 PM,46.4,42.8,87,29.92,10.0,Calm,Calm,-,N/A,,Clear,0,2013-09-29 03:05:00
10:25 PM,46.4,42.8,87,29.92,10.0,Calm,Calm,-,N/A,,Clear,0,2013-09-29 03:25:00
10:45 PM,46.4,42.8,87,29.91,10.0,South,3.5,-,N/A,,Clear,190,2013-09-29 03:45:00
11:05 PM,46.4,42.8,87,29.92,10.0,Calm,Calm,-,N/A,,Clear,0,2013-09-29 04:05:00
11:25 PM,46.4,42.8,87,29.92,10.0,Calm,Calm,-,N/A,,Clear,0,2013-09-29 04:25:00
11:45 PM,46.4,42.8,87,29.92,10.0,Calm,Calm,-,N/A,,Clear,0,2013-09-29 04:45:00